This is the latest recevied weather packets stored in our database for station/object N8WJW. If no packets are shown the sender has not sent any weather packets the latest 10 day(s).
| Time | Temp. | Humidity | Pressure | Rain* | Wind** | Luminosity | Snow |
|---|---|---|---|---|---|---|---|
| 1777461382 | 9.44° C | 99% | 1013.1 hPa | 0 mm | - | 8 W/m² | - |
| 1777461078 | 9.44° C | 99% | 1013 hPa | 0 mm | - | 16 W/m² | - |
| 1777460774 | 8.89° C | 99% | 1013 hPa | 0 mm | - | 14 W/m² | - |
| 1777460470 | 8.89° C | 99% | 1013.3 hPa | 0 mm | - | 5 W/m² | - |
| 1777460165 | 8.89° C | 99% | 1013.2 hPa | 0 mm | - | 4 W/m² | - |
| 1777459864 | 8.89° C | 99% | 1013.1 hPa | 0 mm | - | 4 W/m² | - |
| 1777459560 | 8.89° C | 99% | 1012.9 hPa | 0 mm | - | 4 W/m² | - |
| 1777459258 | 8.33° C | 99% | 1012.8 hPa | 0 mm | - | 4 W/m² | - |
| 1777458955 | 8.33° C | 99% | 1013.1 hPa | 0 mm | - | 2 W/m² | - |
| 1777458652 | 8.33° C | 99% | 1012.7 hPa | 0 mm | - | 3 W/m² | - |
| 1777458348 | 8.33° C | 99% | 1012.6 hPa | 0 mm | - | 2 W/m² | - |
| 1777458044 | 8.33° C | 99% | 1012.7 hPa | 0 mm | - | 1 W/m² | - |
| 1777457739 | 8.33° C | 99% | 1012.7 hPa | 0 mm | - | 0 W/m² | - |
| 1777457434 | 8.33° C | 99% | 1012.7 hPa | 0 mm | - | 0 W/m² | - |
| 1777457129 | 8.33° C | 99% | 1012.5 hPa | 0 mm | - | 0 W/m² | - |
| 1777456826 | 8.33° C | 99% | 1012.5 hPa | 0 mm | - | 0 W/m² | - |
| 1777456526 | 8.89° C | 99% | 1012.3 hPa | 0 mm | - | 0 W/m² | - |
| 1777456222 | 8.89° C | 99% | 1012.3 hPa | 0 mm | - | 0 W/m² | - |
| 1777455917 | 8.89° C | 99% | 1012.4 hPa | 0 mm | - | 0 W/m² | - |
| 1777455615 | 8.89° C | 99% | 1012.4 hPa | 0 mm | - | 0 W/m² | - |
| 1777455311 | 8.89° C | 99% | 1012.6 hPa | 0 mm | - | 0 W/m² | - |
| 1777455009 | 8.89° C | 99% | 1012.6 hPa | 0 mm | - | 0 W/m² | - |
| 1777454705 | 8.89° C | 99% | 1012.8 hPa | 0 mm | - | 0 W/m² | - |
| 1777454400 | 8.89° C | 99% | 1012.7 hPa | 0 mm | - | 0 W/m² | - |
| 1777454098 | 8.89° C | 99% | 1012.9 hPa | 0 mm | - | 0 W/m² | - |
* Rain latest hour (hover to see other rain measurements)
** Current wind speed in m/s (hover to see current wind gust speed)